EW4496 Weather Reports


time (UTC)temp
F
wind
direction
speed
knots
gust
knots
rain 1hr
in
rain 24hr
in
rain mn
in
humidity
%
barometer
mb
20260510230101 88 288 0.0 0.0 0.00 0.00 0.00 42 1010.7
20260510224609 86 334 0.0 0.0 0.00 0.00 0.00 44 1011.0
20260510223059 86 331 0.0 0.0 0.00 0.00 0.00 43 1011.1
20260510221559 87 359 0.0 0.0 0.00 0.00 0.00 43 1011.3
20260510214600 85 56 0.0 0.0 0.00 0.00 0.00 46 1011.8
20260510213118 84 311 0.0 0.9 0.00 0.00 0.00 46 1011.9
20260510211600 83 212 0.0 0.0 0.00 0.00 0.00 48 1012.1
20260510210113 82 316 0.0 5.2 0.00 0.00 0.00 49 1012.2
20260510204618 82 191 0.0 0.0 0.00 0.00 0.00 47 1012.4
20260510203112 82 246 0.0 0.0 0.00 0.00 0.00 47 1012.5
20260510201611 80 328 0.0 3.5 0.00 0.00 0.00 51 1012.6
20260510200112 80 288 0.0 1.7 0.00 0.00 0.00 52 1012.7
20260510194612 78 321 0.0 0.0 0.00 0.00 0.00 52 1012.8
20260510193111 78 357 0.0 3.5 0.00 0.00 0.00 54 1013.0
20260510191611 76 300 0.0 3.5 0.00 0.00 0.00 53 1013.1
20260510190111 75 278 0.0 1.7 0.00 0.00 0.00 57 1013.2
20260510184612 74 323 0.0 3.5 0.00 0.00 0.00 58 1013.3
20260510183112 74 306 0.0 4.3 0.00 0.00 0.00 58 1013.3
20260510181630 73 335 0.0 2.6 0.00 0.00 0.00 59 1013.3
20260510180111 72 312 0.0 2.6 0.00 0.00 0.00 60 1013.4
20260510174624 71 314 0.0 1.7 0.00 0.00 0.00 61 1013.3
20260510173112 70 6 0.0 1.7 0.00 0.00 0.00 63 1013.3
20260510171627 68 312 0.0 0.9 0.00 0.00 0.00 65 1013.4
20260510170018 68 314 0.0 0.9 0.00 0.00 0.00 67 1013.3
20260510164541 67 181 0.0 0.9 0.00 0.00 0.00 68 1013.2
20260510163050 66 276 0.0 0.9 0.00 0.00 0.00 69 1013.4
20260510161541 65 316 0.0 0.0 0.00 0.00 0.00 72 1013.3
20260510160042 64 333 0.0 0.9 0.00 0.00 0.00 73 1013.2
20260510154542 63 328 0.0 0.0 0.00 0.00 0.00 75 1013.2
20260510153044 62 312 0.0 0.0 0.00 0.00 0.00 76 1013.3
20260510151541 61 231 0.0 0.0 0.00 0.00 0.00 77 1013.2
20260510150049 60 286 0.0 0.9 0.00 0.00 0.00 79 1013.1
20260510144559 59 239 0.0 0.9 0.00 0.00 0.00 82 1013.1
20260510143049 58 224 0.0 0.0 0.00 0.00 0.00 84 1013.0
20260510141549 57 263 0.0 1.7 0.00 0.00 0.00 84 1012.8
20260510140049 56 229 0.0 0.0 0.00 0.00 0.00 86 1012.7
20260510134610 55 277 0.0 0.0 0.00 0.00 0.00 88 1012.6
20260510133109 54 222 0.0 0.0 0.00 0.00 0.00 89 1012.4
20260510131610 53 218 0.0 0.0 0.00 0.00 0.00 90 1012.2
20260510130109 53 240 0.0 0.0 0.00 0.00 0.00 90 1012.2
20260510124508 54 263 0.0 0.0 0.00 0.00 0.00 90 1012.1
20260510123009 54 264 0.0 0.0 0.00 0.00 0.00 90 1012.1
20260510121508 54 281 0.0 0.0 0.00 0.00 0.00 89 1012.0
20260510120008 54 285 0.0 0.0 0.00 0.00 0.00 89 1012.0
20260510114525 55 233 0.0 0.0 0.00 0.00 0.00 89 1011.9
20260510113035 55 231 0.0 0.0 0.00 0.00 0.00 89 1011.9
20260510111523 55 227 0.0 0.0 0.00 0.00 0.00 88 1011.9
20260510110037 55 226 0.0 0.0 0.00 0.00 0.00 88 1011.7
20260510104523 56 240 0.0 0.0 0.00 0.00 0.00 88 1011.7
20260510103023 55 246 0.0 0.0 0.00 0.00 0.00 89 1011.8
20260510101523 56 301 0.0 0.0 0.00 0.00 0.00 88 1011.7
20260510100023 56 293 0.0 0.0 0.00 0.00 0.00 87 1011.6
20260510094534 56 306 0.0 0.0 0.00 0.00 0.00 87 1011.5
20260510093025 56 325 0.0 0.0 0.00 0.00 0.00 87 1011.5
20260510091526 57 309 0.0 0.0 0.00 0.00 0.00 86 1011.5
20260510090025 57 263 0.0 0.0 0.00 0.00 0.00 86 1011.4
20260510084522 58 292 0.0 0.0 0.00 0.00 0.00 84 1011.3
20260510083038 59 205 0.0 0.0 0.00 0.00 0.00 83 1011.4
20260510081556 59 210 0.0 0.0 0.00 0.00 0.00 83 1011.3
20260510074554 60 236 0.0 0.0 0.00 0.00 0.00 81 1011.3
20260510073107 60 180 0.0 0.0 0.00 0.00 0.00 81 1011.4
20260510071607 60 181 0.0 0.0 0.00 0.00 0.00 81 1011.5
20260510070115 60 231 0.0 0.9 0.00 0.00 0.00 80 1011.4
20260510064608 61 321 0.0 0.0 0.00 0.00 0.00 78 1011.2
20260510063007 62 270 0.0 0.9 0.00 0.00 0.00 76 1011.3
20260510061509 62 228 0.0 0.0 0.00 0.00 0.00 76 1011.4
20260510060021 63 240 0.0 0.0 0.00 0.00 0.00 76 1011.4
20260510054554 63 219 0.0 0.0 0.00 0.00 0.00 76 1011.3
20260510053109 64 227 0.0 0.0 0.00 0.00 0.00 75 1011.3
20260510051610 65 239 0.0 0.0 0.00 0.00 0.00 74 1011.3
20260510050115 66 226 0.0 0.0 0.00 0.00 0.00 73 1011.1
20260510044606 67 254 0.0 0.0 0.00 0.00 0.00 72 1011.1
20260510043108 67 274 0.0 0.0 0.00 0.00 0.00 70 1010.9
20260510041611 68 255 0.0 0.0 0.00 0.00 0.00 70 1010.7
20260510040115 69 229 0.0 0.0 0.00 0.00 0.00 69 1010.6
20260510034606 71 294 0.0 0.0 0.00 0.00 0.00 66 1010.4
20260510033107 72 321 0.0 0.0 0.00 0.00 0.00 63 1010.2
20260510031606 74 304 0.0 0.9 0.00 0.00 0.00 61 1010.0
20260510030106 76 276 0.0 0.0 0.00 0.00 0.00 59 1009.9
20260510024605 78 298 0.0 0.9 0.00 0.00 0.00 56 1009.8
20260510023014 80 301 0.0 0.9 0.00 0.00 0.00 54 1009.7
20260510021652 81 302 0.0 0.0 0.00 0.00 0.00 54 1009.7
20260510020106 82 321 0.0 4.3 0.00 0.00 0.00 51 1009.7
20260510014606 84 320 0.0 4.3 0.00 0.00 0.00 50 1009.7
20260510013100 85 309 0.0 3.5 0.00 0.00 0.00 47 1009.7
20260510011551 86 349 0.0 5.2 0.00 0.00 0.00 45 1009.7
20260510010057 88 293 0.0 2.6 0.00 0.00 0.00 43 1009.7
20260510004550 88 288 0.0 5.2 0.00 0.00 0.00 42 1009.7
20260510003052 89 233 0.0 1.7 0.00 0.00 0.00 39 1009.7
20260510001536 89 281 0.0 3.5 0.00 0.00 0.00 40 1009.8
20260510000036 89 338 0.0 6.1 0.00 0.00 0.00 40 1009.8
20260509234536 90 328 0.0 0.9 0.00 0.00 0.00 39 1009.9
20260509233036 90 7 0.0 0.9 0.00 0.00 0.00 34 1010.0
20260509231541 90 6 0.0 2.6 0.00 0.00 0.00 34 1010.1